LEALLECO

Guest
Details From LEAL - Alicante
To LECO - A Coruna
Flight Number -
Tags Decoded
Created
Modified
Stats Distance 466 nm / 863 km
Max Altitude 0 ft / 0 m
Waypoints 4
Social Downloads 0
Likes 0
Share VATSIM

Download

Looking for another format? Having issues loading an existing format? Contact us
Advertisement - Login to hide

Notes

Decoded

Route

LEAL COTOS BERAX LECO

ID Type Via Altitude Latitude Longitude Leg Dist Tot Dist Heading (true) Name
O LEAL APT - 0 ft / 0 m 38.28452˚ -0.57500˚ - 0 nm - -
COTOS FIX - 0 ft / 0 m 40.73230˚ -4.06099˚ 218 nm 218 nm 313° / 311° -
BERAX FIX - 0 ft / 0 m 43.25123˚ -8.17267˚ 237 nm 456 nm 311° / 308° -
O LECO APT - 0 ft / 0 m 43.29478˚ -8.38323˚ 9 nm 465 nm 286° / 286° -

Altitude Profile

Advertisement - Login to hide

Weather


0- 5 10 15 20 25 30 35+ Temperature / ° C

Clouds and Precipitation
Forecast for 2018-05-22 00:00 UTC. Updated 2 hours ago

Ground ~20,000 ft ~40,000 ft Winds

LEAL

Details ICAO LEAL (ALC)
Name Alicante
Region Spain
Timezone Europe/Madrid (UTC+2.0)
Stats Elevation 141 ft / 43 m (AMSL)
Location 38.282169° -0.558157°
Runways 1
Magnetic Variation 0.231° E

METAR

LEAL 220100Z 30003KT 260V320 CAVOK 15/13 Q1012 NOSIG

Decode

TAF

TAF TAF LEAL 212300Z 2200/2224 VRB04KT 9999 FEW010 TX25/2212Z TN14/2206Z BECMG 2210/2212 18012KT BECMG 2218/2221 VRB04KT

Decode

Departure Runways

ID Width Length Bearing (true) Bearing (mag) Surface Threshold Offset Overrun Length
10 148 ft / 45 m 9,799 ft / 2,987 m 100.07° 99.84° Asphalt 0 ft / 0 m 164 ft / 50 m
28 148 ft / 45 m 9,799 ft / 2,987 m 280.09° 279.86° Asphalt 0 ft / 0 m 197 ft / 60 m

LECO

Details ICAO LECO (LCG)
Name A Coruna
Region Spain
Timezone Europe/Madrid (UTC+2.0)
Stats Elevation 323 ft / 98 m (AMSL)
Location 43.302264° -8.377086°
Runways 1
Magnetic Variation 2.333° W

METAR

LECO 220100Z AUTO VRB02KT 9999 OVC013/// 14/12 Q1013

Decode

TAF

TAF AMD LECO 212149Z 2121/2221 VRB04KT 9999 SCT010 BKN018 TX22/2214Z TN11/2205Z TEMPO 2121/2208 BKN014 BECMG 2121/2123 3000 BR BKN008 TEMPO 2200/2208 1400 BCFG BKN002 PROB40 TEMPO 2200/2208 0500 FG BKN001 BECMG 2208/2209 CAVOK PROB40 TEMPO 2213/2218 33010KT

Decode

Destination Runways

ID Width Length Bearing (true) Bearing (mag) Surface Threshold Offset Overrun Length
04 148 ft / 45 m 6,371 ft / 1,942 m 30.94° 33.27° Asphalt 0 ft / 0 m 194 ft / 59 m
22 148 ft / 45 m 6,371 ft / 1,942 m 210.94° 213.27° Asphalt 0 ft / 0 m 203 ft / 62 m

Approach Navaids

Runway Type Ident Frequency Range Bearing (true) Bearing (mag) Slope Elevation
22 Localiser LCO 109.90 MHz 18 nm / 33 km 210.89° 213.23° - 329 ft / 100 m (AMSL)
22 Glidescope LCO 109.90 MHz 10 nm / 19 km 210.94° 213.27° 3.00° 323 ft / 98 m (AMSL)
22 DME LCO 109.90 MHz 18 nm / 33 km - - - 293 ft / 89 m (AMSL)

Popular Alternatives